Location: Mercogliano
(40.9167°N, 14.7333°E)
Time: 14:56:25
(UTC+00:00)

Cosmos 372 Rocket - Pass Details

Date: 18 September 2020
Orbit: 739 x 767 km, 74.1° (Epoch: 28 October)

Event Time Altitude Azimuth Distance (km) Brightness Sun altitude
Rises 18:41:47 0° 204° (SSW) 3,221 7.3 -18.8°
Reaches altitude 10° 18:44:10 10° 207° (SSW) 2,298 6.5 -19.3°
Maximum altitude 18:49:22 69° 290° (WNW) 818 4.3 -20.2°
Drops below altitude 10° 18:54:35 10° 15° (NNE) 2,304 6.5 -21.1°
Sets 18:56:59 0° 18° (NNE) 3,231 7.3 -21.5°
